Regional Weather Roundup
Issued by NWS Bismarck, ND

Home | Current Version | Previous Version | Text Only | Print | Product List | Glossary On
Versions: 1 2 3 4 5 6 7 8 9 10 11 12 13 14 15 16 17 18 19 20 21 22 23 24 25 26 27 28 29 30 31 32 33 34 35 36 37 38 39 40 41 42 43 44 45 46 47 48 49 50
000
ASUS43 KBIS 241810
RWRBIS

NWR BROADCAST TEXT
NATIONAL WEATHER SERVICE BISMARCK ND
100 PM CDT FRI APR 24 2015

NOTE: "FAIR" INDICATES FEW OR NO CLOUDS BELOW 12,000 FEET WITH NO
SIGNIFICANT WEATHER AND/OR OBSTRUCTIONS TO VISIBILITY.


CITY           SKY/WX    TMP DP  RH WIND       PRES   REMARKS
WILLISTON      SUNNY     59  31  34 E10       29.65F
MINOT          SUNNY     54  31  41 NE9       29.68F
MINOT AFB      SUNNY     53  33  46 E8        29.67F
BISMARCK       SUNNY     60  36  40 NE8       29.65F
DICKINSON      SUNNY     60  34  37 NE8       29.62F
GARRISON         N/A     55  37  50 E9        29.65F
HETTINGER ARPT SUNNY     63  36  36 NE9       29.63F
JAMESTOWN      SUNNY     58  40  51 E13       29.65F
BEACH          FAIR      64  28  25 E8        29.63F
CARRINGTON     FAIR      54  39  58 SE13      29.69F
CROSBY         FAIR      57  28  33 E9G16     29.67R
HARVEY           N/A    N/A N/A N/A MISG        N/A
HAZEN          FAIR      57  32  38 E10       29.65F
LINTON         FAIR      61  41  48 NE9       29.62S
MANDAN         FAIR      57  36  44 E13       29.65S
OAKES            N/A     55  43  62 E17G26    29.65S
STANLEY        FAIR      54  36  50 E10       29.67S
WATFORD CITY   FAIR      57  32  38 NE6       29.63F
$$

CITY           SKY/WX    TMP DP  RH WIND       PRES   REMARKS
GRAND FORKS    CLOUDY    51  37  58 SE16G23   29.77S
GRAND FORKS AF CLOUDY    50  37  61 SE14      29.76S
DEVILS LAKE    SUNNY     52  37  58 SE15      29.71F
FARGO          CLOUDY    52  40  63 SE21G28   29.72F
CANDO          FAIR      54  36  50 SE7       29.72F
CAVALIER       CLOUDY    52  32  46 SE12G21   29.78F
GRAFTON          N/A     48  34  57 SE16      29.79F
GWINNER        CLEAR     55  43  62 SE21      29.68S
LANGDON        FAIR      55  34  44 SE18      29.74F
ROLLA          FAIR      50  32  50 SE8       29.73F
WALHALLA       FAIR      52  34  50 SE10G22   29.78S
$$

CITY           SKY/WX    TMP DP  RH WIND       PRES   REMARKS
ABERDEEN       PTSUNNY   67  45  45 S9        29.58F
MOBRIDGE       MOSUNNY   63  42  46 N13       29.57F
BUFFALO          N/A     65  32  29 NE12      29.56F
RAPID CITY     SUNNY     65  41  41 NE13      29.60F
GLASGOW        MOSUNNY   59  36  42 S7        29.60S
SIDNEY         SUNNY     63  32  31 CALM      29.64F
WOLF POINT     CLOUDY    60  36  40 E9        29.61F
GLENDIVE       SUNNY     63  36  36 E8        29.63F
MILES CITY     SUNNY     69  38  32 VRB7      29.58F
BAKER          SUNNY     67  32  27 E12       29.62F
$$

CITY           SKY/WX    TMP DP  RH WIND       PRES   REMARKS
BILLINGS       PTSUNNY   63  37  38 CALM      29.61F
GREAT FALLS    LGT RAIN  51  37  58 VRB6      29.65S
REGINA         PTSUNNY   54  30  40 E7        29.68S
$$



USA.gov is the U.S. government's official web portal to all federal, state and local government web resources and services.